Terminal Aerodrome Forecast
Issued by NWS

Home | Current Version | Previous Version | Text Only | Print | Product List | Glossary On
Versions: 1 2 3 4 5 6 7 8 9 10 11 12 13 14 15 16 17 18 19 20 21 22 23 24 25 26 27 28 29
000
FTUS46 KOTX 240149 AAA
TAFCOE
TAF AMD
KCOE 240149Z 2402/2424 28015G25KT P6SM VCTS SCT025 BKN050CB OVC100
     FM240400 22015KT P6SM -SHRA BKN030 BKN100
     FM241200 22008KT P6SM BKN025
     FM241600 23012G20KT P6SM SCT025 BKN040
     FM242000 23018G28KT P6SM BKN040 OVC080
      AMD LTD TO CLD VIS AND WIND=

USA.gov is the U.S. government's official web portal to all federal, state and local government web resources and services.